DELTA 1 R/B, 3094

Orbit data source: Space-Track

DELTA 1 R/B, 3094 is space debris in LEO originally from a launch on Thu, 11 Jan 1968 UTC launched from the Air Force Western Test Range (AFWTR). Debris objects in space refer to the collection of defunct objects orbiting the Earth. Examples of debris include non-operational satellites, rocket bodies, and fragments generated from explosions, collisions, or faulty payload assembly.

Loading next visibility...
Identifier
3094, 1968-002B
Orbit
LEO
Country
Flag of USUS
Related business
Manufacturer
UTC
Mission
Spacecraft
Bus & Motor
FW4, Unknown motor
Mass
~40 kg wet, ~40 kg dry
Launch date (UTC)
1968-01-11 (58 years ago)
Launch vehicle
Unknown
Launch site
Air Force Western Test Range (AFWTR)
Object type
Payload
Rocket body
Debris
Shape & HBR
Unknown
Radar Cross Section
Medium (>0.1 m² and <1 m²)

Expand to show TLE details & history
Last TLE update: 12 hours ago

TLE from 12 hours ago
0 DELTA 1 R/B
1 03094U 68002B   26102.05714860 -.00000020  00000-0  18166-3 0  9992
2 03094 105.8017  43.5444 0312913 154.1359 219.8421 12.85280246731467
Epoch: 2026-04-12T01:22Z
TLE epoch observation values (Epoch: 2026-04-12T01:22:17.639Z)
Latitude
11.26006°
Longitude
179.48902°
Altitude
1,509.974 km
Speed
7.024 km/s
True Right ascension
02h 41m 19s
True Declination
11° 12' 02"
Sunlit
Object was in daylight at epoch
Visualization orbit readout
Latitude
Unknown
Longitude
Unknown
Altitude
Unknown
Speed
Unknown
Apparent Right ascension
Unknown
Apparent Declination
Unknown
Sunlit
N/A
Visualization observer readout
Local Sidereal Time
19:26:19
Azimuth
Unknown
Elevation
Unknown
Doppler factor
Unknown
Orbital elements
Apogee altitude
1,558.916 km
Perigee altitude
1,077.266 km
Semi-major axis
7,696.228 km
Eccentricity
0.03129
Inclination
105.8017°
RAAN
43.5444°
Arg. of periapsis
154.1359°
True anomaly
217.61244°
Mean anomaly
219.8421°
Eccentric anomaly
218.72062°
Mean motion
3.2146 °/min
Orbital period
111.99 mins
BSTAR
0.00018166
Loading maneuver chart data...
Computing Atmospheric mass density...
Loading historical data...
Loading historical data...
Loading historical data...
Loading historical data...
Loading historical data...
Loading historical data...
Loading historical data...

Documentation

Showing up to 5 results
|